STARLINK-4710, 53799

Orbit data source: Space-Track

STARLINK-4710, 53799 is a payload satellite owned by SpaceX/Seattle (US) in LEO that was launched on Sun, 11 Sep 2022 UTC via an FALCON 9 launch vehicle from the Air Force Eastern Test Range (AFETR). Payload-class satellites include a variety of spacecraft equipped with specific instruments for various scientific and technological missions. These include communications satellites like Starlink; space stations such as the ISS; scientific satellites like the Hubble; Earth observation satellites from companies like Planet Labs, Umbra, and HawkEye 360; GPS; miniature CubeSats for education and research; and military/defense satellites.

Loading next visibility...
Identifier
53799, 2022-111AC
Orbit
LEO
Country
Flag of USUS
Related business
Manufacturer
SpaceX/Seattle
Mission
Operational Commercial Communications
Bus & Motor
STARLINK, Unknown motor
Mass
305 kg wet, ~290 kg dry
Launch date (UTC)
2022-09-11 (3 years ago)
Launch vehicle
FALCON 9
Launch site
Air Force Eastern Test Range (AFETR)
Object type
Payload
Rocket body
Debris
Shape & HBR
Box + 1 Pan, 10.1 m
Radar Cross Section
13.562 m², Large (>1 m²)

Expand to show TLE details & history
Last TLE update: 5 hours ago

TLE from 5 hours ago
0 STARLINK-4710
1 53799U 22111AC  26036.28702288  .00009490  00000-0  61411-3 0  9992
2 53799  53.2170  49.6521 0000801 105.6429 254.4651 15.08805131188923
Epoch: 2026-02-05T06:53Z
TLE epoch observation values (Epoch: 2026-02-05T06:53:18.776Z)
Latitude
-0.00008°
Longitude
170.88238°
Altitude
540.896 km
Speed
7.593 km/s
True Right ascension
03h 18m 36s
True Declination
0° 00' 00"
Sunlit
Object was in daylight at epoch
Visualization orbit readout
Latitude
Unknown
Longitude
Unknown
Altitude
Unknown
Speed
Unknown
Apparent Right ascension
Unknown
Apparent Declination
Unknown
Sunlit
N/A
Visualization observer readout
Local Sidereal Time
14:21:13
Azimuth
Unknown
Elevation
Unknown
Doppler factor
Unknown
Orbital elements
Apogee altitude
540.649 km
Perigee altitude
539.541 km
Semi-major axis
6,918.232 km
Eccentricity
0.00008
Inclination
53.217°
RAAN
49.6521°
Arg. of periapsis
105.6429°
True anomaly
254.45626°
Mean anomaly
254.4651°
Eccentric anomaly
254.46068°
Mean motion
3.77182 °/min
Orbital period
95.44 mins
BSTAR
0.00061411
Loading maneuver chart data...
Computing Atmospheric mass density...
Loading historical data...
Loading historical data...
Loading historical data...
Loading historical data...
Loading historical data...
Loading historical data...
Loading historical data...

Documentation

Showing up to 5 results
|